Dean International
Flight School

Career Spotlight

Mika

Mika

Congratulations to Mika from Khazakstan. She recently sent us this photo of her flying an Airbus airliner.

More...
Mika's Success Story
close

Congratulations to Mika from Khazakstan. She recently sent us this photo of her flying an Airbus airliner.

Mario

Mario

My dreams could not have been realized if I wouldn't have been part of the Dean International family.

More...
Mario's Success Story
close

"My dreams could not have been realized if I wouldn't have been part of the Dean International family. Thank you Robert, thanks to all my co-workers, and thanks to all of my students!"

Fernando

Fernando

I am now working as a First Officer at TACA and am enjoying every moment of it.

More...
Fernando's Success Story
close

"Will never forget my time of flight training at Dean International. I am now working as a First Officer at TACA and am enjoying every moment of it."

Alvaro

Alvaro

Because of the flight time I was able to built while instructing, I got the experience needed to apply to an airline in Colombia.

More...
Alvaro's Success Story
close

Dean alumnus Alvaro Londoño currently flies with Tampa Cargo. He says of his experience at Dean: "I want to take this opportunity to thank you for giving me the chance to build my experience and expand my knowledge in Dean International. Because of the flight time I was able to built flight instructing, I got the experience needed to apply to an airline in Colombia."

Ralph

Ralph

Every Aruban student of Dean International has made it into Tiara Air Aruba, that is very nice.

More...
Ralph's Success Story
close

"Next to me is my Co-Pilot, Elison. This picture was taken on our first flight together, which was almost exactly 5 years after I finished at Dean International. [...] Every Aruban student of Dean International has made it into Tiara Air Aruba. [...] The future looks bright here in Aruba."

Rohaan

Rohaan

The [..] staff will all work diligently to help you finish your certificates as safely and efficiently as possible.

More...
Rohaan's Success Story
close

After receiving very hard times from other flight schools [...], I came to Dean International where Robert Dean personally sat down with me and gave me a financial and chronological look into how much remained to finish my private pilot certificate. Through his hard efforts as an instructor and mentor, I was able to finish my private pilot certificate within one week.

Welcome to Dean International

In over two decades, Dean International has educated over 7,000 pilots from all over the world, including over 1,000 students from India alone. By offering a great training experience, a friendly service staff, an ample variety of aircraft, and by improving constantly, we have become one of the largest, most prestigious FAA 141-approved flight schools in North America. Located in Miami, Florida, USA, our flight school offers an ideal location for year-round, "learn to fly" weather, flight training. Dean International is not only well-equipped to provide services to professional trainees but also caters to General Aviation renters. Visit or contact our headquarters at Kendall-Tamiami Executive Airport located in Miami, FL today to learn more about us, or simply read more about our programs if you are an international student interested in joining our school.

Local Airport Information
TAF FOR KTMB (Issued: Thu, August 28th 2014 2:57 AM UTC)
TAF
      AMD KTMB 280154Z 2802/2824 10007KT P6SM FEW100
      FM280600 00000KT P6SM VCSH SCT030 SCT250
      FM281500 14007KT P6SM VCSH SCT035
     
METAR FOR KTMB (Issued: Thu, August 28th 2014 2:53 AM UTC):
KTMB 280253Z AUTO 08007KT 10SM CLR 29/23 A2998 RMK AO2 SLP150 T02890228 51009

This weather information is provided by the National Weather Service.
It is automatically refreshed every three minutes.
TAF FOR KHST (Issued: Thu, August 28th 2014 12:13 AM UTC)
TAF KHST 2800/2906 VRB06KT 9999 FEW040 QNH2995INS
      BECMG 2815/2816 13009KT 9999 FEW035 QNH3000INS
      TEMPO 2816/2821 14010G15KT 8000 -TSRA BKN030CB
      BECMG 2823/2824 VRB06KT 9999 FEW040 QNH3000INS TX32/2816Z TN25/2809Z
     
METAR FOR KHST (Issued: Thu, August 28th 2014 2:58 AM UTC):
KHST 280258Z AUTO 09006KT 10SM FEW090 29/23 A2998 RMK AO2 SLP155 T02880232 52008

This weather information is provided by the National Weather Service.
It is automatically refreshed every three minutes.
TAF FOR KOPF (Issued: Thu, August 28th 2014 2:57 AM UTC)
TAF
      AMD KOPF 280154Z 2802/2824 08007KT P6SM FEW030
      FM280500 VRB04KT P6SM SCT250
      FM281500 12007KT P6SM SCT035
     
METAR FOR KOPF (Issued: Thu, August 28th 2014 2:53 AM UTC):
KOPF 280253Z AUTO 08007KT 10SM FEW090 28/23 A2998 RMK AO2 SLP154 T02830228 51009

This weather information is provided by the National Weather Service.
It is automatically refreshed every three minutes.
TAF FOR KMIA (Issued: Thu, August 28th 2014 2:57 AM UTC)
TAF
      AMD KMIA 280154Z 2802/2824 09008KT P6SM FEW090
      FM280700 VRB03KT P6SM VCSH SCT030 SCT250
      FM281500 14007KT P6SM VCSH SCT035
     
METAR FOR KMIA (Issued: Thu, August 28th 2014 2:53 AM UTC):
KMIA 280253Z 09007KT 10SM SCT090 29/23 A2998 RMK AO2 SLP152 T02890228 51009 $

This weather information is provided by the National Weather Service.
It is automatically refreshed every three minutes.
Design by Ariel Llizo
© Dean International Inc. 2012